{"data":{"norad_id":81392,"epoch":"2026-09-18T07:26:58.845984Z","epoch_age_seconds":203880,"freshness":"STALE","line1":"1 81392U          26261.31040331  .00001993  00000+0  18523-2 0  9997","line2":"2 81392 100.4034 283.3521 0038923  42.6245 331.4266 13.83267415640813","mean_motion":13.83267415,"eccentricity":0.0038923,"inclination_deg":100.4034,"raan_deg":283.3521,"arg_perigee_deg":42.6245,"mean_anomaly_deg":331.4266,"bstar":0.0018523,"rev_number":64081,"period_min":104.10134615945,"perigee_km":923.78810587934,"apogee_km":980.85278490876,"semimajor_km":7330.4574453941,"source":"CELESTRAK","updated_at":"2026-09-20T09:00:32.387715Z"}}